Location: Home
(42.5358°N, 72.7383°W)
Time: 14:42:18
(UTC-05:00)

CAS-4A - Visible Passes

Search period start: 21 January 2022 00:00
Search period end: 31 January 2022 00:00
Orbit: 529 x 538 km, 43.0° (Epoch: 21 January)

Date Brightness Start Highest point End Pass type
(mag) Time Alt. Az. Time Alt. Az. Time Alt. Az.
21 Jan ? 05:35:39 15° SW 05:35:39 15° SW 05:37:47 10° S visible
22 Jan ? 05:25:12 11° SSW 05:25:12 11° SSW 05:25:32 10° SSW visible
28 Jan ? 19:41:50 10° SSW 19:42:03 11° SSW 19:42:03 11° SSW visible
29 Jan ? 19:30:16 10° SW 19:31:37 19° SSW 19:31:37 19° SSW visible
30 Jan ? 17:42:11 10° SSE 17:43:13 11° SE 17:44:14 10° SE visible
30 Jan ? 19:18:44 10° SW 19:21:07 29° SSW 19:21:07 29° SSW visible
